Weather reports worldwide

Advertisment
Pembrey Sands, United Kingdom (3605): temperature & dewpoint: 17.09.2020 01:00:00 - 23.09.2020 01:00:00 (BST)Pembrey Sands, United Kingdom (3605): wind speed & gusts: 17.09.2020 01:00:00 - 23.09.2020 01:00:00 (BST)Pembrey Sands, United Kingdom (3605): wind direction: 17.09.2020 01:00:00 - 23.09.2020 01:00:00 (BST)Pembrey Sands, United Kingdom (3605): reduced air pressure: 17.09.2020 01:00:00 - 23.09.2020 01:00:00 (BST)Pembrey Sands, United Kingdom (3605): visibility: 17.09.2020 01:00:00 - 23.09.2020 01:00:00 (BST)Pembrey Sands, United Kingdom (3605): precipitation: 17.09.2020 01:00:00 - 23.09.2020 01:00:00 (BST)
Date & Time tt [°C] td [°C] ff [km/h] ff [kn] fx [km/h] fx [kn] dd ppp [hPa] vv [km] rr [mm]
23.09.2020 01:00:00 16,0 14,0 31 17 - - SW 1002,7 20 0,0
23.09.2020 00:00:00 16,0 13,9 29 16 - - SW 1003,2 22 0,0
22.09.2020 23:00:00 15,9 14,7 31 17 - - WSW 1003,7 16 0,8
22.09.2020 22:00:00 16,1 15,1 31 17 - - SSW 1004,1 12 0,2
22.09.2020 21:00:00 15,5 14,4 28 15 50 27 SW 1004,6 18 0,2
22.09.2020 20:00:00 16,1 14,6 34 18 - - SW 1005,0 16 0,0
22.09.2020 19:00:00 16,1 14,7 34 18 - - SSW 1005,3 16 0,0
22.09.2020 18:00:00 16,1 14,8 29 16 - - SW 1005,7 11 0,0
22.09.2020 17:00:00 15,8 14,9 24 13 - - SW 1006,4 9 0,0
22.09.2020 16:00:00 15,9 14,8 15 8 - - WSW 1007,2 13 0,0
22.09.2020 15:00:00 16,0 14,3 24 13 - - SW 1007,9 15 0,0
22.09.2020 14:00:00 16,5 14,1 21 11 - - SSW 1008,4 17 0,0
22.09.2020 13:00:00 17,2 14,6 18 10 - - SSW 1009,0 16 0,0
22.09.2020 12:00:00 16,4 15,3 15 8 - - SW 1009,5 12 0,0
22.09.2020 11:00:00 15,6 15,3 5 3 - - S 1009,9 9 0,0
22.09.2020 10:00:00 15,2 15,1 2 1 - - ENE 1010,2 7 0,0
22.09.2020 09:00:00 14,4 14,3 4 2 - - ENE 1011,0 2,7 0,0
22.09.2020 08:00:00 13,9 13,8 5 3 - - ENE 1011,1 1,3 0,0
22.09.2020 07:00:00 13,1 13,0 4 2 - - NE 1011,4 0,7 0,0
22.09.2020 06:00:00 12,7 12,6 4 2 - - NE 1011,7 0,1 0,0
22.09.2020 05:00:00 12,4 12,3 5 3 - - E 1012,1 0,1 0,0
22.09.2020 04:00:00 12,9 12,8 9 5 - - ESE 1012,7 0,4 0,0
22.09.2020 03:00:00 12,7 12,5 11 6 - - ESE 1013,5 0,4 0,0
22.09.2020 02:00:00 9,2 8,7 5 3 - - E 1014,3 2,0 0,0
22.09.2020 01:00:00 9,5 8,9 4 2 - - E 1014,7 0,3 0,0
22.09.2020 00:00:00 11,0 10,4 8 4 - - E 1015,2 3,9 0,0
21.09.2020 23:00:00 11,1 10,3 4 2 - - E 1015,6 0,4 0,0
21.09.2020 22:00:00 11,7 10,6 5 3 - - E 1015,8 6 0,0
21.09.2020 21:00:00 12,6 11,0 4 2 - - N 1016,0 15 0,0
21.09.2020 20:00:00 16,7 15,1 8 4 - - WSW 1016,0 20 0,0
21.09.2020 19:00:00 17,1 14,6 8 4 - - SSW 1016,0 23 0,0
21.09.2020 18:00:00 18,3 14,8 8 4 - - WSW 1016,4 30 0,0
21.09.2020 17:00:00 19,2 15,2 8 4 - - WSW 1016,7 27 0,0
21.09.2020 16:00:00 18,6 14,6 9 5 - - SW 1016,9 10 0,0
21.09.2020 15:00:00 18,4 14,7 11 6 - - WSW 1017,6 25 0,0
21.09.2020 14:00:00 18,6 14,9 13 7 - - SW 1017,9 22 0,0
21.09.2020 13:00:00 18,9 13,5 9 5 - - W 1018,2 22 0,0
21.09.2020 12:00:00 18,3 13,2 5 3 - - WSW 1018,3 30 0,0
21.09.2020 11:00:00 17,0 13,3 4 2 - - WSW 1018,6 15 0,0
21.09.2020 10:00:00 17,4 13,1 2 1 - - SSW 1018,6 35 0,0
21.09.2020 09:00:00 13,7 11,8 9 5 - - E 1018,8 30 0,0
21.09.2020 08:00:00 9,7 9,0 5 3 - - NE 1018,7 12 0,0
21.09.2020 07:00:00 9,6 8,6 5 3 - - NE 1018,4 10 0,0
21.09.2020 06:00:00 10,6 9,5 9 5 - - NE 1018,4 19 0,0
21.09.2020 05:00:00 12,3 10,9 11 6 - - E 1018,4 26 0,0
21.09.2020 04:00:00 12,2 11,0 8 4 - - ENE 1018,7 24 0,0
21.09.2020 03:00:00 12,4 11,6 9 5 - - ESE 1019,0 25 0,0
21.09.2020 02:00:00 12,3 10,3 9 5 - - ENE 1019,4 15 0,0
21.09.2020 01:00:00 11,7 9,9 8 4 - - N 1019,2 12 0,0
21.09.2020 00:00:00 14,8 11,8 13 7 - - E 1019,2 24 0,0
20.09.2020 23:00:00 15,2 12,2 13 7 - - E 1019,4 27 0,0
20.09.2020 22:00:00 15,6 12,5 13 7 - - ENE 1019,6 24 0,0
20.09.2020 21:00:00 16,8 13,0 16 9 - - ENE 1019,5 30 0,0
20.09.2020 20:00:00 15,1 12,4 9 5 - - N 1019,1 25 0,0
20.09.2020 19:00:00 17,4 13,8 9 5 - - WNW 1019,2 24 0,0
20.09.2020 18:00:00 18,5 13,9 9 5 - - W 1018,9 29 0,0
20.09.2020 17:00:00 18,7 13,4 11 6 - - SSW 1018,7 30 0,0
20.09.2020 16:00:00 19,0 12,4 15 8 - - SSW 1018,9 35 0,0
20.09.2020 15:00:00 18,6 13,2 16 9 - - S 1019,0 30 0,0
20.09.2020 14:00:00 20,5 12,4 15 8 - - NE 1019,2 45 0,0
20.09.2020 13:00:00 19,7 12,4 18 10 - - NNE 1019,6 45 0,0
20.09.2020 12:00:00 18,7 12,4 18 10 - - NE 1019,8 45 0,0
20.09.2020 11:00:00 17,1 11,5 21 11 - - NE 1019,9 35 0,0
20.09.2020 10:00:00 15,8 10,8 21 11 - - ENE 1019,8 45 0,0
20.09.2020 09:00:00 14,0 10,2 16 9 - - ENE 1019,6 35 0,0
20.09.2020 08:00:00 12,4 10,0 13 7 - - ENE 1019,7 35 0,0
20.09.2020 07:00:00 11,8 9,8 9 5 - - NE 1019,3 35 0,0
20.09.2020 06:00:00 10,3 9,1 15 8 - - NE 1018,9 25 0,0
20.09.2020 05:00:00 9,9 8,3 9 5 - - NE 1018,9 28 0,0
20.09.2020 04:00:00 10,9 8,7 9 5 - - NNE 1018,9 30 0,0
20.09.2020 03:00:00 11,9 9,3 9 5 - - NE 1018,9 35 0,0
20.09.2020 02:00:00 13,3 9,9 13 7 - - NE 1018,6 40 0,0
20.09.2020 01:00:00 14,2 10,0 18 10 - - ENE 1018,6 45 0,0
20.09.2020 00:00:00 15,3 10,6 22 12 - - ENE 1018,1 50 0,0
19.09.2020 23:00:00 15,7 11,2 16 9 - - NE 1018,2 50 0,0
19.09.2020 22:00:00 16,7 11,1 21 11 - - ENE 1018,2 50 0,0
19.09.2020 21:00:00 15,9 11,8 15 8 - - NE 1018,0 45 0,0
19.09.2020 20:00:00 17,2 12,0 16 9 - - NE 1017,4 50 0,0
19.09.2020 19:00:00 17,9 12,3 15 8 - - NE 1017,0 45 0,0
19.09.2020 18:00:00 19,1 12,5 22 12 - - NE 1016,6 45 0,0
19.09.2020 17:00:00 20,3 12,0 31 17 46 25 NE 1016,4 45 0,0
19.09.2020 16:00:00 19,9 12,3 24 13 - - NE 1016,6 50 0,0
19.09.2020 15:00:00 20,5 12,4 22 12 - - NE 1016,7 50 0,0
19.09.2020 14:00:00 19,6 11,6 24 13 - - NE 1017,3 60 0,0
19.09.2020 13:00:00 20,3 12,4 24 13 - - NE 1017,6 50 0,0
19.09.2020 12:00:00 18,8 11,4 21 11 - - NE 1018,0 40 0,0
19.09.2020 11:00:00 17,5 11,1 26 14 - - ENE 1018,2 40 0,0
19.09.2020 10:00:00 15,7 11,1 18 10 - - ENE 1018,5 35 0,0
19.09.2020 09:00:00 14,4 11,2 22 12 - - ENE 1018,3 30 0,0
19.09.2020 08:00:00 13,2 11,2 18 10 - - NE 1018,3 25 0,0
19.09.2020 07:00:00 11,9 10,3 16 9 - - NE 1018,1 24 0,0
19.09.2020 06:00:00 11,0 9,7 11 6 - - NE 1018,0 26 0,0
19.09.2020 05:00:00 11,1 9,3 8 4 - - NE 1018,0 30 0,0
19.09.2020 04:00:00 11,4 9,4 11 6 - - ENE 1018,2 35 0,0
19.09.2020 03:00:00 11,1 9,1 15 8 - - NE 1018,5 45 0,0
19.09.2020 02:00:00 11,2 8,8 13 7 - - ENE 1019,0 65 0,0
19.09.2020 01:00:00 11,6 8,4 9 5 - - ENE 1019,1 65 0,0
19.09.2020 00:00:00 12,2 9,1 9 5 - - ENE 1019,3 60 0,0
18.09.2020 23:00:00 12,8 9,6 9 5 - - ENE 1019,7 55 0,0
18.09.2020 22:00:00 14,7 9,6 11 6 - - ENE 1019,9 60 0,0
18.09.2020 21:00:00 15,0 10,4 11 6 - - ENE 1019,7 65 0,0
18.09.2020 20:00:00 15,1 9,1 9 5 - - ENE 1019,9 70 0,0
18.09.2020 19:00:00 17,1 9,5 13 7 - - ENE 1019,6 70 0,0
18.09.2020 18:00:00 19,5 9,9 18 10 - - ENE 1019,3 75 0,0
18.09.2020 17:00:00 19,5 10,3 22 12 - - ENE 1019,2 65 0,0
18.09.2020 16:00:00 20,3 10,1 21 11 - - ENE 1020,1 65 0,0
18.09.2020 15:00:00 20,2 10,1 21 11 - - ENE 1020,4 65 0,0
18.09.2020 14:00:00 19,3 10,5 24 13 - - NE 1020,9 45 0,0
18.09.2020 13:00:00 18,4 9,1 31 17 - - ENE 1021,5 45 0,0
18.09.2020 12:00:00 17,4 9,2 28 15 - - NE 1022,5 50 0,0
18.09.2020 11:00:00 16,6 8,8 16 9 - - E 1023,4 75 0,0
18.09.2020 10:00:00 14,6 9,5 11 6 - - ENE 1023,6 55 0,0
18.09.2020 09:00:00 12,5 9,5 11 6 - - NNE 1023,4 21 0,0
18.09.2020 08:00:00 10,9 8,9 18 10 - - NE 1023,4 45 0,0
18.09.2020 07:00:00 9,6 7,8 15 8 - - NE 1023,7 45 0,0
18.09.2020 06:00:00 10,2 7,6 16 9 - - NE 1023,5 60 0,0
18.09.2020 05:00:00 10,1 7,3 13 7 - - ENE 1024,1 60 0,0
18.09.2020 04:00:00 11,4 7,7 16 9 - - ENE 1024,5 65 0,0
18.09.2020 03:00:00 12,4 7,6 22 12 - - ENE 1025,0 65 0,0
18.09.2020 02:00:00 13,2 8,6 16 9 - - E 1025,4 55 0,0
18.09.2020 01:00:00 11,1 9,1 9 5 - - NE 1025,3 30 0,0
18.09.2020 00:00:00 11,0 8,7 11 6 - - ENE 1025,5 27 0,0
17.09.2020 23:00:00 13,2 10,3 13 7 - - ENE 1025,4 30 0,0
17.09.2020 22:00:00 14,4 10,2 16 9 - - ENE 1025,6 30 0,0
17.09.2020 21:00:00 14,7 10,5 13 7 - - ENE 1025,7 28 0,0
17.09.2020 20:00:00 16,7 11,0 15 8 - - ENE 1025,2 40 0,0
17.09.2020 19:00:00 18,7 11,1 9 5 - - NE 1025,1 50 0,0
17.09.2020 18:00:00 21,2 9,9 13 7 - - ENE 1025,0 60 0,0
17.09.2020 17:00:00 22,1 8,6 13 7 - - E 1025,2 55 0,0
17.09.2020 16:00:00 22,6 5,7 15 8 - - E 1025,9 75 0,0
17.09.2020 15:00:00 22,5 5,9 21 11 - - E 1026,5 75 0,0
17.09.2020 14:00:00 22,0 7,1 22 12 - - E 1027,1 75 0,0
17.09.2020 13:00:00 21,8 10,3 16 9 - - E 1027,4 65 0,0
17.09.2020 12:00:00 20,2 10,6 13 7 - - E 1027,8 60 0,0
17.09.2020 11:00:00 18,2 11,1 11 6 - - E 1028,1 45 0,0
17.09.2020 10:00:00 16,1 12,0 16 9 - - ENE 1028,4 30 0,0
17.09.2020 09:00:00 14,6 11,7 16 9 - - ENE 1028,4 35 0,0
17.09.2020 08:00:00 13,2 11,6 15 8 - - ENE 1028,2 21 0,0
17.09.2020 07:00:00 12,7 11,5 13 7 - - ENE 1028,0 17 0,0
17.09.2020 06:00:00 13,0 11,7 13 7 - - ENE 1027,9 18 0,0
17.09.2020 05:00:00 13,2 11,8 9 5 - - ENE 1028,0 17 0,0
17.09.2020 04:00:00 13,9 12,5 13 7 - - ENE 1028,1 16 0,0
17.09.2020 03:00:00 14,3 12,9 11 6 - - ENE 1028,3 13 0,0
17.09.2020 02:00:00 14,8 13,1 13 7 - - ENE 1028,3 9 0,0
17.09.2020 01:00:00 15,4 13,5 13 7 - - ENE 1028,2 8 0,0

tt = temperature
td = dewpoint
ff = wind speed
fx = gusts
dd = wind direction
ppp = reduced air pressure
vv = visibility
rr = precipitation

Next stations